Lamoni, IA

7:51 AM CDT on April 30, 2017 (GMT -0500)
Lamoni Municipal

Weather History for KLWD - March, 2012

Change the Weather History Date:

Sunday, March 11, 2012

  Actual Average Record
Temperature  
Mean Temperature 47 °F -  
Max Temperature 52 °F - 80 °F (1972)
Min Temperature 42 °F - 6 °F (1969)
Degree Days  
Heating Degree Days 18    
Month to date heating degree days 255  
Since 1 July heating degree days 4383  
Cooling Degree Days 0 0  
Month to date cooling degree days 0 0  
Year to date cooling degree days 0 0  
Moisture  
Dew Point 43 °F    
Average Humidity 73    
Maximum Humidity 96    
Minimum Humidity 49    
Precipitation  
Precipitation 0.40 in - 1.35 in (1976)
Month to date precipitation 0.53  
Year to date precipitation 2.80  
Sea Level Pressure  
Sea Level Pressure 29.94 in    
Wind  
Wind Speed 9 mph (SSE)    
Max Wind Speed 17 mph    
Max Gust Speed 23 mph    
Visibility 7 miles    
Events Rain    
T = Trace of Precipitation, MM = Missing Value Source: NWS Daily Summary

Daily Weather History Graph

Daily Weather History Graph

Search for Another Location

Airport or City:

Trip Planner

Search our weather history database for the weather conditions in past years. The results will help you decide how hot, cold, wet, or windy it might be!

Date:

Astronomy

Mar. 11, 2012 Rise Set
Actual Time 7:32 AM CDT 7:18 PM CDT
Civil Twilight 7:05 AM CDT 7:45 PM CDT
Nautical Twilight 6:34 AM CDT 8:17 PM CDT
Astronomical Twilight 6:02 AM CDT 8:49 PM CDT
Moon 11:45 PM CDT (3/11) 9:07 AM CDT (3/11)
Length of Visible Light 12h 40m
Length of Day
11h 45m
Waning Gibbous, 85% of the Moon is Illuminated
Mar 11
Waning Gibbous
Mar 14
Last Quarter
Mar 22
New
Mar 30
First Quarter
Apr 6
Full

Hourly Weather History & Observations

Time (CDT) Temp. Windchill Dew Point Humidity Pressure Visibility Wind Dir Wind Speed Gust Speed Precip Events Conditions
12:53 AM 46.0 °F 40.6 °F 30.0 °F 54% 30.13 in 10.0 mi SSW 11.5 mph - N/A   Clear
1:53 AM 43.0 °F 38.8 °F 28.9 °F 58% 30.12 in 10.0 mi SSW 6.9 mph - N/A   Clear
3:53 AM 44.1 °F 40.1 °F 27.0 °F 51% 30.11 in 10.0 mi South 6.9 mph - N/A   Clear
4:53 AM 43.0 °F 38.2 °F 27.0 °F 53% 30.10 in 10.0 mi South 8.1 mph - N/A   Clear
5:53 AM 43.0 °F 38.8 °F 28.0 °F 56% 30.10 in 10.0 mi South 6.9 mph - N/A   Clear
6:53 AM 43.0 °F 39.5 °F 28.0 °F 56% 30.10 in 10.0 mi SSE 5.8 mph - N/A   Clear
7:53 AM 43.0 °F 38.8 °F 28.0 °F 56% 30.11 in 10.0 mi SSE 6.9 mph - N/A   Clear
8:53 AM 44.1 °F 40.8 °F 28.9 °F 55% 30.11 in 10.0 mi SSE 5.8 mph - N/A   Scattered Clouds
9:53 AM 46.9 °F - 30.0 °F 52% 30.12 in 10.0 mi South 10.4 mph - N/A   Mostly Cloudy
10:53 AM 48.0 °F - 30.9 °F 52% 30.12 in 10.0 mi South 12.7 mph - N/A   Overcast
11:53 AM 46.9 °F - 37.9 °F 71% 30.09 in 10.0 mi South 5.8 mph - 0.01 in Rain Light Rain
12:53 PM 46.9 °F - 39.9 °F 77% 30.07 in 10.0 mi SSE 8.1 mph - 0.01 in   Overcast
1:20 PM 46.4 °F 41.9 °F 39.2 °F 76% 30.03 in 10.0 mi SSE 9.2 mph - N/A   Overcast
1:53 PM 46.9 °F - 42.1 °F 83% 30.02 in 5.0 mi SE 10.4 mph - N/A   Haze
2:10 PM 46.4 °F 42.9 °F 44.6 °F 93% 29.98 in 4.0 mi ESE 6.9 mph - N/A   Overcast
2:17 PM 46.4 °F 42.9 °F 44.6 °F 93% 29.97 in 8.0 mi ESE 6.9 mph - N/A   Overcast
2:53 PM 46.9 °F - 44.1 °F 90% 29.97 in 10.0 mi ESE 9.2 mph - N/A   Overcast
3:08 PM 48.2 °F - 44.6 °F 87% 29.94 in 3.0 mi SE 8.1 mph - N/A Rain Light Rain
3:15 PM 48.2 °F - 46.4 °F 93% 29.94 in 2.5 mi SE 9.2 mph - 0.00 in   Overcast
3:53 PM 48.0 °F - 46.0 °F 93% 29.94 in 1.8 mi ESE 8.1 mph - 0.00 in   Overcast
4:20 PM 48.2 °F - 46.4 °F 93% 29.91 in 2.5 mi SE 5.8 mph - 0.01 in Rain Light Rain
4:29 PM 48.2 °F - 46.4 °F 93% 29.91 in 4.0 mi SE 6.9 mph - 0.01 in Rain Light Rain
4:53 PM 48.9 °F - 46.9 °F 93% 29.92 in 3.0 mi SE 9.2 mph - 0.04 in Rain Light Rain
5:00 PM 48.2 °F - 46.4 °F 93% 29.90 in 2.0 mi SE 8.1 mph - 0.01 in Rain Light Rain
5:12 PM 48.2 °F - 46.4 °F 93% 29.89 in 4.0 mi SE 8.1 mph - 0.02 in Rain Light Rain
5:53 PM 50.0 °F - 48.9 °F 96% 29.87 in 4.0 mi SE 9.2 mph - 0.07 in Rain Light Rain
6:07 PM 50.0 °F - 48.2 °F 94% 29.85 in 4.0 mi SE 10.4 mph 19.6 mph 0.02 in Rain Light Rain
6:53 PM 51.1 °F - 50.0 °F 96% 29.84 in 4.0 mi SE 9.2 mph - 0.12 in Rain Light Rain
7:53 PM 51.1 °F - 50.0 °F 96% 29.83 in 5.0 mi SSE 10.4 mph - 0.06 in Rain Light Rain
8:05 PM 51.8 °F - 50.0 °F 94% 29.81 in 2.5 mi SSE 11.5 mph - 0.01 in Rain Light Rain
8:15 PM 51.8 °F - 51.8 °F 100% 29.81 in 2.5 mi SSE 11.5 mph 18.4 mph 0.03 in Rain Light Rain
8:28 PM 51.8 °F - 51.8 °F 100% 29.81 in 4.0 mi SSE 13.8 mph - 0.04 in Rain Light Rain
8:53 PM 52.0 °F - 51.1 °F 97% 29.82 in 6.0 mi South 10.4 mph 18.4 mph 0.05 in   Overcast
9:53 PM 52.0 °F - 51.1 °F 97% 29.81 in 4.0 mi South 9.2 mph - 0.02 in Rain Light Rain
10:42 PM 51.8 °F - 51.8 °F 100% 29.79 in 10.0 mi SSW 15.0 mph - 0.02 in   Overcast
10:53 PM 52.0 °F - 50.0 °F 93% 29.80 in 10.0 mi SSW 11.5 mph - 0.02 in   Overcast
11:50 PM 51.8 °F - 48.2 °F 88% 29.78 in 10.0 mi SSW 13.8 mph 23.0 mph N/A   Overcast
11:53 PM 51.1 °F - 48.9 °F 92% 29.79 in 10.0 mi SSW 12.7 mph 23.0 mph N/A   Overcast
11:58 PM 51.8 °F - 48.2 °F 88% 29.78 in 10.0 mi SSW 15.0 mph - N/A   Overcast
12:26 AM 50.0 °F - 48.2 °F 94% 29.78 in 10.0 mi SSW 12.7 mph - 0.00 in Rain Light Rain
12:34 AM 50.0 °F - 48.2 °F 94% 29.78 in 10.0 mi SSW 13.8 mph - 0.00 in   Overcast
12:53 AM 50.0 °F - 48.0 °F 93% 29.78 in 10.0 mi SSW 11.5 mph - 0.00 in Rain Light Rain